Location: Newark
(17.1458°N, 89.0741°W)
Time: 19:38:06
(UTC+00:00)

Envisat - Visible Passes

Search period start: 21 July 2019 00:00
Search period end: 31 July 2019 00:00
Orbit: 764 x 766 km, 98.1° (Epoch: 21 July)

Date Brightness Start Highest point End Pass type
(mag) Time Alt. Az. Time Alt. Az. Time Alt. Az.
22 Jul 5.3 01:22:34 10° SSW 01:26:33 23° W 01:30:32 10° NW visible
24 Jul 6.0 01:50:45 10° WSW 01:52:07 11° W 01:53:30 10° W visible
25 Jul 4.9 01:10:51 10° SSW 01:15:18 31° W 01:19:45 10° NW visible
27 Jul 5.7 01:37:55 10° SW 01:40:51 15° W 01:43:46 10° WNW visible
28 Jul 4.3 00:59:17 10° S 01:04:02 42° W 01:08:50 10° NNW visible
30 Jul 5.5 01:25:50 10° SSW 01:29:35 21° W 01:33:20 10° NW visible
